Change the Weather History Date:

Friday, September 7, 2012

  Actual Average Record
Temperature  
Mean Temperature 80 °F -  
Max Temperature 92 °F 83 °F 97 °F (2007)
Min Temperature 68 °F 64 °F 59 °F (2006)
Cooling Degree Days 15    
Growing Degree Days 30 (Base 50)    
Moisture  
Dew Point 71 °F    
Average Humidity 72    
Maximum Humidity 100    
Minimum Humidity 49    
Precipitation  
Precipitation 0.00 in - - ()
Sea Level Pressure  
Sea Level Pressure 29.87 in    
Wind  
Wind Speed 4 mph (SSW)    
Max Wind Speed 8 mph    
Max Gust Speed -    
Visibility 10 miles    
Events      
Averages and records for this station are not official NWS values.
T = Trace of Precipitation, MM = Missing Value Source: NWS Daily Summary

Daily Weather History Graph

Daily Weather History Graph

Search for Another Location

Airport or City:

Trip Planner

Search our weather history database for the weather conditions in past years. The results will help you decide how hot, cold, wet, or windy it might be!

Date:

Astronomy

Sep. 07, 2012 Rise Set
Actual Time 6:22 AM CDT 7:04 PM CDT
Civil Twilight 5:56 AM CDT 7:30 PM CDT
Nautical Twilight 5:26 AM CDT 8:00 PM CDT
Astronomical Twilight 4:54 AM CDT 8:32 PM CDT
Moon 11:13 PM CDT (9/7) 1:00 PM CDT (9/7)
Length of Visible Light 13h 33m
Length of Day
12h 41m
Waning Gibbous, 58% of the Moon is Illuminated
Sep 7
Waning Gibbous
Sep 8
Last Quarter
Sep 15
New
Sep 22
First Quarter
Sep 29
Full

Hourly Weather History & Observations

Time (CDT) Temp. Heat Index Dew Point Humidity Pressure Visibility Wind Dir Wind Speed Gust Speed Precip Events Conditions
1:56 AM 72.9 °F - 68.9 °F 87% 29.91 in 10.0 mi Calm Calm - N/A   Clear
2:56 AM 70.9 °F - 68.9 °F 93% 29.92 in 10.0 mi Calm Calm - N/A   Clear
3:56 AM 68.9 °F - 68.0 °F 97% 29.91 in 10.0 mi SSW 3.5 mph - N/A   Clear
4:56 AM 68.9 °F - 68.0 °F 97% 29.92 in 10.0 mi South 5.8 mph - N/A   Clear
5:56 AM 68.0 °F - 68.0 °F 100% 29.93 in 10.0 mi Calm Calm - N/A   Clear
6:56 AM 68.9 °F - 68.0 °F 97% 29.95 in 10.0 mi SSE 4.6 mph - N/A   Clear
7:56 AM 73.9 °F - 70.0 °F 87% 29.96 in 10.0 mi South 4.6 mph - N/A   Clear
8:56 AM 79.0 °F - 72.0 °F 79% 29.96 in 10.0 mi SSE 6.9 mph - 0.00 in   Clear
9:56 AM 83.8 °F 90.8 °F 73.9 °F 72% 29.96 in 10.0 mi SW 5.8 mph - N/A   Clear
10:56 AM 88.0 °F 96.5 °F 73.9 °F 63% 29.95 in 10.0 mi West 6.9 mph - N/A   Partly Cloudy
11:56 AM 90.0 °F 97.9 °F 72.9 °F 57% 29.93 in 10.0 mi West 4.6 mph - N/A   Partly Cloudy
12:56 PM 90.0 °F 97.9 °F 72.9 °F 57% 29.90 in 10.0 mi West 4.6 mph - N/A   Scattered Clouds
1:56 PM 91.9 °F 99.5 °F 72.0 °F 52% 29.88 in 10.0 mi SW 4.6 mph - N/A   Partly Cloudy
2:56 PM 92.8 °F 100.3 °F 72.0 °F 50% 29.85 in 10.0 mi South 6.9 mph - N/A   Partly Cloudy
3:56 PM 92.8 °F 99.7 °F 70.9 °F 49% 29.83 in 10.0 mi SW 8.1 mph - N/A   Scattered Clouds
4:56 PM 91.9 °F 98.4 °F 70.9 °F 50% 29.80 in 10.0 mi SW 8.1 mph - N/A   Scattered Clouds
5:56 PM 90.9 °F 97.3 °F 70.9 °F 52% 29.78 in 10.0 mi SSW 5.8 mph - N/A   Clear
6:56 PM 86.9 °F 93.3 °F 72.0 °F 61% 29.76 in 10.0 mi South 4.6 mph - N/A   Clear
7:56 PM 83.8 °F 89.2 °F 72.0 °F 67% 29.78 in 10.0 mi SSW 5.8 mph - N/A   Clear
8:56 PM 81.9 °F 86.6 °F 72.0 °F 72% 29.76 in 10.0 mi SW 5.8 mph - N/A   Clear
9:56 PM 81.9 °F 86.6 °F 72.0 °F 72% 29.75 in 10.0 mi SSW 4.6 mph - N/A   Clear
10:56 PM 81.0 °F 85.2 °F 72.0 °F 74% 29.79 in 10.0 mi SSW 5.8 mph - N/A   Clear
11:56 PM 81.0 °F 85.2 °F 72.0 °F 74% 29.78 in 10.0 mi SSW 5.8 mph - N/A   Clear